Погода Черновцы

Поиск расширенной информации на нашем сайте:

Полезная информация:

Новости сайта



14.11.2019
Обновлён Долгосрочный прогноз погоды по России и другим странам хСССР на ноябрь-декабрь 2019 года.
Опубликованы прогностические карты: Предварительный прогноз на декабрь 2019 года, Предварительный прогноз на январь 2020 года, Предварительная схема синоптических процессов на декабрь 2019 г..

11.11.2019
Обновлены Долгосрочный прогноз погоды по России и другим странам хСССР на ноябрь-декабрь 2019 года и Предварительный прогноз на зиму 2019/2020 годов

04.11.2019
Опубликован Долгосрочный прогноз погоды по России и другим странам хСССР на ноябрь 2019 года
Сравнение прогнозируемой аномалии приземной температуры воздуха на ноябрь 2019 года по разным моделям
Предварительный прогноз на зиму 2019/2020 года




Погода Черновцы - сегодня

Время (UTC), дата Ветер
(°,м/с) 
Видим.   Явления Облачность Т
(°С)
Тd
(°С)
f(%) Тe
(°С)
Pmin
(гПа)
dP
(гПа)
Po
(мм)
O2
(г/м3)
Тmin Tmax R s Состояние
почвы
00 18.11.19 110 (В) 8000 м  дымка  10/10 300 м 
[St]
+9.6 +7.3 86 +8  1020.1  -0.6  743  288           
03 18.11.19 110 (В) 5000 м  дымка  10/10 210 м 
[St]
+9.3 +7.4 88 +7  1019.7  -0.4  743  288           
06 18.11.19 120 (ЮВ) 10 км    10/10 300 м 
[St]
+8.5 +6.8 89 +6  1019.9  0.1  743  289  +8.5  +0.8       
09 18.11.19 120 (ЮВ) 12000 м    10/10 360 м 
[St]
+9.5 +7 84 +8  1019.8  743  288           
12 18.11.19 130 (ЮВ) 18000 м    10/10 600 м 
[St]
+11.7 +7.6 76 +10  1018  -1.5  741  285           
15 18.11.19 120 (ЮВ) 13000 м    4/0 верхняя 
[Ci fib]
+9.9 +7.4 84 +9  1018.6  0.4  742  287           
18 18.11.19 100 (В) 6000 м  дымка  4/0 верхняя 
[Ci fib]
+7.8 +7.2 96 +7  1020.4  1.5  743  290    +13       
21 18.11.19 100 (В) <0100 м  туман  ?/?  
+6.7 +6.7 100 +8  1022.1  1.6  744  291           
00 19.11.19 тихо ()   <0100 м  туман  ?/?  
+7.6 +7.6 100 +8  1023.5  1.4  745  291           
03 19.11.19 тихо ()   1300 м  туман  ясно 
+7.2 +7.2 100 +7  1024.4  0.8  746  292           
06 19.11.19 тихо ()   0100 м  слаб. ливневой дождь{туман}  ?/?  
+7.7 +7.7 100 +8  1025.1  0.8  746  291  +6.7    0.7     
09 19.11.19 120 (ЮВ) 2200 м  дымка{ливн. осадки, туман}  10/6 60 м средняя 
[St|Ac As]
+8.7 +7.9 95 +9  1025.8  0.8  747  290           
12 19.11.19 070 (В) 3400 м  дымка{ливн. осадки, туман}  10/4 120 м средняя 
[St|Ac As]
+10.4 +9.2 92 +11  1024.6  -1  746  288           
15 19.11.19 110 (В) 2300 м  дымка  10/10 120 м 
[St]
+10.6 +9.4 92 +11  1025.1  0.5  747  288           
18 19.11.19 130 (ЮВ) 0500 м  туман  ?/?  
+11 +11 100 +14  1024.7  -0.3  746  287      0.0     
21 19.11.19 110 (В) <0100 м  туман  ?/?  
+11 +11 100 +15  1024.6  -0.1  746  287           
00 20.11.19 тихо ()   <0100 м  туман  ?/?  
+11 +11 100 +14  1024.3  -0.3  746  287           
03 20.11.19 100 (В) 0900 м  туман  ?/?  
+11.1 +11.1 100 +13  1023.7  -0.6  746  287           
06 20.11.19 100 (В) 2100 м  дымка{туман}  10/10 120 м 
[St]
+10.9 +10.1 95 +11  1023.4  -0.3  745  287  +9.8         
09 20.11.19 110 (В) 5000 м  слаб. морось  10/10 180 м 
[St]
+11.7 +10.1 90 +11  1023.5  0.2  746  286           
12 20.11.19 120 (ЮВ) 9000 м  дымка{морось}  10/10 300 м 
[St]
+11.8 +10.3 91 +12  1022.7  -0.8  745  286           
15 20.11.19 120 (ЮВ) 10 км    10/10 360 м 
[St]
+11.2 +8.8 85 +10  1022.8  745  287           
18 20.11.19 110 (В) 7000 м  дымка  10/10 300 м 
[St]
+10.8 +7.5 80 +9  1023  0.2  745  287    +12  0.0     
21 20.11.19 120 (ЮВ) 9000 м  слаб. ливневой дождь{морось}  10/10 400 м кучево-дожд. 
[Cb cap]
+10 +7.5 84 +8  1023.4  0.3  745  288           
00 21.11.19 110 (В) 2700 м  слаб. ливневой дождь{морось}  10/10 120 м кучево-дожд. 
[Cb cap]
+9 +7.5 90 +6  1024  0.4  746  290      0.5     
Время (UTC), дата Ветер
(°,м/с) 
Видим.   Явления Облачность Т
(°С)
Тd
(°С)
f(%) Тe
(°С)
Pmin
(гПа)
dP
(гПа)
Po
(мм)
O2
(г/м3)
Тmin Tmax R s Состояние
почвы

Для получения пояснительной информации подведите курсор к названию столбца.

ПОГОДА Черновцы - архив

Всё, что Вы хотите узнать о погоде Черновцы - удобно и подробно!

Выберите нужную дату (начиная с 1 января 2019* года) и нажмите кнопку "Найти".
Будут отображены архивные сводки погоды по пункту Черновцы, начиная с указанной даты.


Отображать данные в формате CSV (для использования в таблицах Excel)


Внимание! Наш архив погоды предназначен исключительно для личного некоммерческого использования в познавательных целях. Если Вам необходимы официальные справки о состоянии погоды (для производственных, юридических, коммерческих и т.п. целей), обращайтесь в органы Росгидромета.

*Примечание: данная дата относится к архиву по метеостанциям СССР (Россия, СНГ, Балтия).
Архив по метеостанциям Зарубежной Европы и Азии (кроме Китая) хранится 10 дней, по другим регионам земного шара (Китай, Африка, Америка, Австралия, Океания) - 1 день.

Черновцы - район местоположения метеостанции


Название, широта, долгота, высота метеостанции:
Черновцы 48.4°ш. 25.9°д. 246 м над ур. моря [Украина]

Дополнительная информация

В oтличие oт бoльшинства пoгoдных сайтoв мы публикуем пoдрoбную метеoинфoрмацию в детальнoм прoфессиoнальнoм фoрмате.

Характеристики температуры и влажнoсти вoздуха измеряются на высoте 2 м в тени вдали oт зданий и деревьев.
Скoрoсть ветра измеряется на высoте 10 м (на урoвне рoста челoвека скoрoсть ветра ниже в 1.5-2 раза). Если метеoстанция нахoдится в гoрoде или в лесу, тo скoрoсть ветра занижена на 2-4 м/с пo сравнению с oткрытым местoм. Скoрoсть ветра над акватoриями крупных рек и oзёр, а также на вершинах хoлмoв на 2-5 м/с выше, чем в oбычных услoвиях.
Атмoсфернoе давление в разных тoчках местнoсти мoжет значительнo oтличаться oт давления на метеoстанции, в зависимoсти oт услoвий рельефа (при пoдъёме на 10 м давление пoнижается примернo на 1 мм рт.ст.).